FENGYUN 1C DEB

Satellite information

Favourite Embed

Satellite Type and Status

DEBRISIN ORBIT

Key statistics

Satellite FENGYUN 1C DEB at a glance.

Uptime

9715

Days in orbit

Revolutions

≈ 14.3

Per day

Orbit

SSO

Sun Synchronous Orbit

Inclination

99.0

Latest

Satellite identification and parameters

Extended collection of information and parameters for FENGYUN 1C DEB.

Object identification

Identified? True

Debris? True

Object name: FENGYUN 1C DEB

International designator: 1999-025CMD

Object number (NORAD): 31926

Object ID (CCSDS): 31926

Country: PEOPLES REPUBLIC OF CHINA (PRC)

Current information (Y/N): Y

RCS size: SMALL

Orbital parameters

Period: 100.649 minutes

Inclination: 98.9566 deg

SMA: 7167.465 km

Apoapsis: 817.334 km

Periapsis: 761.326 km

RAAN: 81.441 deg

Eccentricy: 0.00390708

Argument of periapsis: 254.6996 deg

Mean anomaly: 104.9866 deg

Mean motion: 14.30719252 rev/day

Mean motion (dot): 0.00009832 rev/day2

B* drag term: 0.0037395544 1/REarth

Two-line elements (TLE)

Creation date: Dec. 12, 2025, 10:14 a.m.

Reference frame: TEME

Reference center: EARTH

Epoch: Dec. 12, 2025, 5:19 a.m. UTC

TLE line 0: 0 FENGYUN 1C DEB

TLE line 1: 1 31926U 99025CMD 25346.22153684 .00009832 00000-0 37396-2 0 9999

TLE line 2: 2 31926 98.9566 81.4410 0039071 254.6996 104.9866 14.30719252952201

Live tracking on map

Real-time ground track for satellite FENGYUN 1C DEB.

In-orbit conjunctions

A list of the most updated potential collisions computed for object FENGYUN 1C DEB.

Target Orbit TCA Probability of collision Miss distance Type
ORBCOMM FM 16 DEB LEO 2025-07-20 07:52:45 0.0001841908 172.0 (m) DEBRIS
CZ-6A DEB LEO 2025-01-07 12:50:13 0.0002241288 231.0 (m) DEBRIS
FENGYUN 1C DEB SSO 2024-11-15 00:32:42 0.001704213 12.0 (m) DEBRIS

Associated space launch

Chinese polar orbiting meteorological satellite

FENGYUN 1C DEB was lifted into orbit during the mission ‘Long March 4B | Feng Yun 1C’, on board a Long March 4B space rocket.

The launch took place on May 10, 1999, 1:33 a.m. from Launch Complex 7.

For more information about the launch, click the button.

Launch to space Long March 4B | Feng Yun 1C
Long March 4B | Feng Yun 1C

Agency: N/A

Status: Launch Successful

Launch date: May 10, 1999, 1:33 a.m. UTC

Rocket: Long March 4B

Launch pad: Launch Complex 7

Location: Taiyuan Satellite Launch Center, People's Republic of China

...

Latest news about this satellite

There are no fresh news available about this satellite. Check back as we update our databases every day.


Newsletter sign-up

Weekly statistics, charts and insights to help you stay on top of the space industry.